Regional Weather Roundup
Issued by NWS Memphis, TN

Home | Current Version | Previous Version | Text Only | Print | Product List | Glossary On
Versions: 1 2 3 4 5 6 7 8 9 10 11 12 13 14 15 16 17 18 19 20 21 22 23 24 25 26 27 28 29 30 31 32 33 34 35 36 37 38 39 40 41 42 43 44 45 46 47 48 49 50
000
ASUS44 KMEG 200800
RWRMEG
MEMPHIS CWA HOURLY WEATHER ROUNDUP
NATIONAL WEATHER SERVICE MEMPHIS TN
200 AM CST SAT JAN 20 2018

...WEST TENNESSEE...

CITY           SKY/WX    TMP DP  RH WIND       PRES   REMARKS
MEMPHIS INTL   CLOUDY    46  21  37 S8        30.17S
NWS MEMPHIS      N/A     44 N/A N/A MISG        N/A
JACKSON        CLOUDY    44  24  45 S13       30.16S
DYERSBURG      FAIR      39  22  50 S5        30.14R


...EASTERN ARKANSAS...

CITY           SKY/WX    TMP DP  RH WIND       PRES   REMARKS
JONESBORO      CLOUDY    40  28  62 S14       30.13R WCI  32
WEST MEMPHIS   CLOUDY    39  29  67 S9        30.16R WCI  33
BATESVILLE     CLOUDY    39  24  55 SE5       30.11S
NEWPORT        FAIR      34  28  79 S6        30.14R WCI  29
WALNUT RIDGE   FAIR      33  27  78 S10       30.11S WCI  25
BLYTHEVILLE    MOCLDY    39  28  64 SW16      30.14R WCI  30
SEARCY         CLOUDY    36  30  79 CALM      30.14
STUTTGART      CLOUDY    40  30  67 S6        30.15S
PINE BLUFF     CLOUDY    43  28  55 S6        30.15S
MONTICELLO     CLOUDY    47  24  40 S8        30.16F


...NORTH MISSISSIPPI...

CITY           SKY/WX    TMP DP  RH WIND       PRES   REMARKS
TUPELO         CLOUDY    44  24  45 S7        30.21F
OXFORD         CLOUDY    45  21  39 VRB5      30.20S
CLARKSDALE     CLOUDY    39  30  70 S7        30.18F WCI  34
GREENWOOD      CLOUDY    45  31  58 CALM      30.20F
COLUMBUS       CLOUDY    46  28  48 SE7       30.22F
STARKVILLE     CLOUDY    43  28  56 S3        30.23F
GOLDEN TRIANGL CLOUDY    45  24  43 SE7       30.23F


...SOUTHEAST MISSOURI...

CITY           SKY/WX    TMP DP  RH WIND       PRES   REMARKS
KENNETT        FAIR      37  28  70 SW10      30.11R WCI  30
MALDEN         FAIR      34  28  80 S10       30.11S WCI  26
WEST PLAINS    CLOUDY    37  27  67 S7        30.01F WCI  32
POPLAR BLUFF   FAIR      34  27  75 SW10      30.07F WCI  26
CAPE GIRARDEAU FAIR      32  24  72 S9        30.08R WCI  24


...NORTHWEST ALABAMA...

CITY           SKY/WX    TMP DP  RH WIND       PRES   REMARKS
MUSCLE SHOALS  CLOUDY    46  24  42 SW7       30.22S


...MIDDLE TENNESSEE...

CITY           SKY/WX    TMP DP  RH WIND       PRES   REMARKS
NASHVILLE      CLOUDY    45  26  47 S10       30.17S
CLARKSVILLE    CLOUDY    44  19  36 SW13G20   30.14R


...WESTERN KENTUCKY...

CITY           SKY/WX    TMP DP  RH WIND       PRES   REMARKS
PADUCAH        FAIR      38  17  42 SW9       30.09R WCI  31
FORT CAMPBELL  CLOUDY    42  21  43 SW14      30.12R


...CENTRAL ARKANSAS...

CITY           SKY/WX    TMP DP  RH WIND       PRES   REMARKS
LITTLE ROCK    CLOUDY    38  30  73 CALM      30.14R


SKY/WX REPORTED AS FAIR MEANS FEW OR NO CLOUDS BELOW
12 THOUSAND FEET.




USA.gov is the U.S. government's official web portal to all federal, state and local government web resources and services.